Location: Libas
(9.8833°N, 125.9833°E)
Time: 21:29:44
(UTC+00:00)

Cosmos 292 Rocket - Pass Details

Date: 27 October 2020
Orbit: 672 x 695 km, 74.0° (Epoch: 25 November)

Event Time Altitude Azimuth Distance (km) Brightness Sun altitude
Exits shadow 20:28:51 - 331° (NNW) 2,218 6.0 -14.5°
Reaches altitude 10° 20:29:03 10° 330° (NNW) 2,143 5.9 -14.5°
Maximum altitude 20:33:38 44° 259° (W) 949 4.1 -13.4°
Drops below altitude 10° 20:38:13 10° 187° (S) 2,136 6.4 -12.3°
Sets 20:40:37 0° 180° (S) 3,049 7.3 -11.7°
